FW2420 Weather Reports


time (UTC)temp
C
wind
direction
speed
KPH
gust
KPH
rain 1hr
cm
rain 24hr
cm
rain mn
cm
humidity
%
barometer
mb
20260507200103 22 360 16.1 27.4 0.00 0.08 0.00 23 1014.1
20260507194544 22 360 17.7 33.8 0.00 0.08 0.00 24 1014.4
20260507193047 21 360 20.9 29.0 0.00 0.08 0.00 25 1014.6
20260507191539 22 360 20.9 33.8 0.00 0.08 0.00 25 1014.7
20260507190038 21 360 14.5 25.7 0.00 0.08 0.00 23 1015.1
20260507184532 21 360 20.9 32.2 0.00 0.08 0.00 23 1015.4
20260507183036 21 360 17.7 35.4 0.00 0.10 0.00 25 1015.7
20260507181532 21 360 20.9 30.6 0.00 0.10 0.00 27 1016.0
20260507180021 20 360 22.5 33.8 0.00 0.10 0.00 30 1016.2
20260507174519 19 360 27.4 41.8 0.00 0.10 0.00 28 1016.7
20260507173015 19 360 30.6 37.0 0.00 0.23 0.00 30 1016.9
20260507171507 18 360 27.4 38.6 0.00 0.23 0.00 36 1017.2
20260507170002 17 360 27.4 33.8 0.00 0.23 0.00 39 1017.5
20260507164528 17 360 25.7 33.8 0.00 0.23 0.00 43 1017.6
20260507163027 17 360 20.9 32.2 0.00 0.46 0.00 47 1017.7
20260507161516 16 360 22.5 32.2 0.00 0.46 0.00 46 1018.0
20260507160012 15 360 20.9 30.6 0.00 0.46 0.00 50 1018.1
20260507154507 13 360 22.5 30.6 0.00 0.46 0.00 56 1018.2
20260507153002 12 360 20.9 27.4 0.00 0.69 0.00 64 1018.3
20260507151601 11 360 20.9 29.0 0.00 0.69 0.00 68 1018.6
20260507150024 10 360 24.1 33.8 0.00 0.69 0.00 71 1018.8
20260507144527 8 360 24.1 30.6 0.00 0.69 0.00 73 1018.9
20260507143015 8 360 25.7 33.8 0.00 0.69 0.00 73 1018.9
20260507141512 8 360 22.5 32.2 0.00 0.69 0.00 76 1018.9
20260507140007 7 360 20.9 32.2 0.00 0.69 0.00 79 1018.8
20260507134503 6 360 24.1 33.8 0.00 0.69 0.00 80 1018.9
20260507133056 5 360 25.7 33.8 0.00 0.69 0.00 82 1019.1
20260507131552 3 360 22.5 29.0 0.00 0.69 0.00 84 1018.9
20260507130059 3 360 19.3 30.6 0.00 0.69 0.00 85 1019.0
20260507124557 2 360 22.5 32.2 0.00 0.69 0.00 86 1018.9
20260507123052 1 360 22.5 27.4 0.00 0.69 0.00 86 1018.8
20260507121545 1 360 22.5 29.0 0.00 0.69 0.00 87 1018.6
20260507120039 1 360 20.9 25.7 0.00 0.69 0.00 87 1018.9
20260507114535 1 360 19.3 29.0 0.00 0.69 0.00 87 1019.0
20260507113031 1 360 17.7 29.0 0.00 0.69 0.00 87 1019.0
20260507111531 1 360 19.3 27.4 0.00 0.69 0.00 87 1019.1
20260507110029 1 360 19.3 27.4 0.00 0.69 0.00 87 1019.2
20260507104529 1 360 19.3 29.0 0.00 0.69 0.00 87 1019.3
20260507103028 1 360 20.9 32.2 0.00 0.69 0.00 87 1019.3
20260507101535 2 360 22.5 33.8 0.00 0.69 0.00 87 1019.3
20260507100035 2 360 24.1 33.8 0.00 0.69 0.00 88 1019.3
20260507094521 1 360 19.3 29.0 0.00 0.69 0.00 88 1019.5
20260507093018 1 360 16.1 22.5 0.00 0.71 0.00 88 1019.9
20260507091519 1 360 12.9 20.9 0.00 0.71 0.00 88 1020.0
20260507090014 2 360 16.1 25.7 0.00 0.71 0.00 89 1020.0
20260507084513 2 360 17.7 25.7 0.00 0.71 0.00 89 1020.3
20260507083012 2 360 17.7 27.4 0.00 0.79 0.00 90 1020.5
20260507081508 2 360 17.7 27.4 0.00 0.79 0.00 90 1020.6
20260507080006 1 360 17.7 24.1 0.00 0.79 0.00 90 1020.7
20260507074505 1 360 14.5 20.9 0.00 0.79 0.00 91 1021.0
20260507073103 1 360 14.5 19.3 0.00 0.84 0.00 91 1021.1
20260507071556 1 360 12.9 19.3 0.00 0.84 0.00 91 1021.3
20260507070054 1 360 14.5 20.9 0.00 0.84 0.00 91 1021.5
20260507064551 1 360 11.3 19.3 0.00 0.84 0.00 91 1021.8
20260507063049 1 360 9.7 16.1 0.00 0.97 0.00 91 1022.1
20260507061544 1 360 8.0 16.1 0.00 0.97 0.00 91 1022.1
20260507060041 1 360 9.7 16.1 0.00 0.97 0.00 91 1022.3
20260507054542 1 360 9.7 16.1 0.00 0.97 0.00 91 1022.3
20260507053035 1 360 11.3 17.7 0.00 0.97 0.97 91 1022.4
20260507051536 1 360 11.3 17.7 0.00 0.97 0.97 91 1022.5
20260507050037 2 360 9.7 17.7 0.00 0.97 0.97 90 1022.4
20260507044538 1 360 11.3 16.1 0.00 0.97 0.97 90 1022.6
20260507043027 1 360 9.7 16.1 0.00 1.02 0.97 90 1022.7
20260507041531 1 360 8.0 14.5 0.00 1.02 0.97 90 1022.7
20260507040025 2 360 9.7 14.5 0.00 1.02 0.97 90 1022.7
20260507034523 1 360 9.7 14.5 0.00 1.02 0.97 90 1022.7
20260507033020 2 360 6.4 9.7 0.00 1.19 0.97 89 1022.8
20260507031525 2 360 6.4 9.7 0.00 1.19 0.97 89 1022.7
20260507030017 2 360 4.8 9.7 0.00 1.19 0.97 88 1022.6
20260507024519 2 360 4.8 8.0 0.00 1.19 0.97 88 1022.6
20260507023017 3 360 6.4 9.7 0.00 1.37 0.97 87 1022.4
20260507021515 3 360 4.8 9.7 0.00 1.37 0.97 86 1022.3
20260507020013 4 360 4.8 8.0 0.00 1.37 0.97 85 1022.1
20260507014517 4 360 3.2 12.9 0.00 1.37 0.97 84 1022.2
20260507013020 5 360 11.3 20.9 0.00 1.42 0.97 84 1022.2
20260507011517 5 360 12.9 19.3 0.00 1.42 0.97 84 1022.2
20260507010010 5 360 12.9 17.7 0.00 1.42 0.97 84 1022.0
20260507004523 5 360 14.5 19.3 0.00 1.42 0.97 84 1022.1
20260507003007 5 360 14.5 20.9 0.00 1.42 0.97 84 1022.1
20260507001504 5 360 11.3 16.1 0.00 1.42 0.97 84 1022.0
20260507000004 5 360 11.3 19.3 0.00 1.42 0.97 83 1021.9
20260506234502 5 360 11.3 17.7 0.00 1.42 0.97 83 1022.1
20260506233001 5 360 12.9 17.7 0.00 1.42 0.97 83 1022.1
20260506231600 5 360 11.3 17.7 0.00 1.42 0.97 83 1022.1
20260506230100 6 360 8.0 17.7 0.00 1.42 0.97 85 1022.2
20260506224555 5 360 9.7 16.1 0.00 1.42 0.97 86 1022.3
20260506223057 5 360 8.0 14.5 0.03 1.42 0.97 88 1022.0
20260506221550 5 360 8.0 14.5 0.03 1.42 0.97 88 1022.1
20260506220052 4 360 8.0 16.1 0.05 1.42 0.97 88 1022.5
20260506214549 4 360 6.4 12.9 0.05 1.42 0.97 87 1022.4
20260506213104 4 360 4.8 9.7 0.03 1.42 0.94 86 1022.6
20260506211519 4 360 1.6 8.0 0.03 1.42 0.94 86 1022.5
20260506210019 5 360 4.8 9.7 0.03 1.40 0.91 86 1022.6
20260506204514 5 103 0.0 3.2 0.03 1.40 0.91 88 1022.6
20260506203022 4 360 0.0 6.4 0.03 1.42 0.91 87 1022.7
20260506201529 4 360 3.2 8.0 0.03 1.42 0.91 88 1022.8